Regional Weather Roundup
Issued by NWS Charleston, SC

Current Version | Previous Version | Graphics & Text | Print | Product List | Glossary On
Versions: 1 2 3 4 5 6 7 8 9 10 11 12 13 14 15 16 17 18 19 20 21 22 23 24 25 26 27 28 29 30 31 32 33 34 35 36 37 38 39 40 41 42 43 44 45 46 47 48 49 50
000 ASUS42 KCHS 271612 RWRCHS REGIONAL WEATHER ROUNDUP NATIONAL WEATHER SERVICE CHARLESTON SC 1200 PM EDT THU APR 27 2017 NOTE: "FAIR" INDICATES FEW OR NO CLOUDS BELOW 12,000 FEET WITH NO SIGNIFICANT WEATHER AND/OR OBSTRUCTIONS TO VISIBILITY. NOT ALL STATIONS ARE QUALITY CONTROLLED. USE DATA WITH CAUTION... ESPECIALLY DEWPOINT OBSERVATIONS. SCZ027-030-031-034>040-042>050-271700- ...SOUTHEAST SOUTH CAROLINA... CITY SKY/WX TMP DP RH WIND PRES REMARKS N CHARLESTON PTSUNNY 81 59 47 S18 29.94S WATERFRONT PRK N/A 76 64 66 S10 29.92F JOHNS ISLAND PTSUNNY 79 66 65 S13G20 29.94F PINOPOLIS N/A 79 64 61 S7G14 29.86 MONCKS CORNER PTSUNNY 79 61 53 SW12G20 29.93S SUMMERVILLE FAIR 79 63 57 S6 29.94F BEAUFORT MCAS MOSUNNY 81 65 58 S13G25 29.92F BEAUFORT ARPT FAIR 79 68 69 S14G20 29.93S HILTON HEAD IS MOSUNNY 79 72 78 S9 29.94F WALTERBORO PTSUNNY 81 63 54 S12G20 29.93S ALLENDALE FAIR 79 63 57 S9G18 29.90R ...SOUTHERN MIDLANDS AND PEE DEE... CITY SKY/WX TMP DP RH WIND PRES REMARKS GEORGETOWN CLOUDY 77 63 61 S10G16 29.95F KINGSTREE PTSUNNY 79 61 53 SE13 29.92S ORANGEBURG MOSUNNY 77 62 59 SW14 29.91S BARNWELL CLOUDY 79 64 61 S10 29.92R AIKEN CLOUDY 70 64 83 S10 29.94S MANNING PTSUNNY 77 63 61 MISG 29.92F COLUMBIA CLOUDY 76 64 66 S15 29.90R SUMTER CLOUDY 77 61 56 S13 29.89S FLORENCE MOSUNNY 79 60 52 SW15G21 29.91F MYRTLE BEACH MOSUNNY 79 66 65 SW16 29.94F N MYRTLE BEACH SUNNY 77 67 71 S14 29.93F $$ GAZ063-065-086>088-099>101-113>116-118-119-134>141-150-271700- ...SOUTHEAST GEORGIA... CITY SKY/WX TMP DP RH WIND PRES REMARKS SAVANNAH ARPT MOSUNNY 85 63 47 S16 29.91F HUNTER AAF MOSUNNY 82 67 62 S10 29.90S FORT STEWART SUNNY 83 63 51 S10G21 29.89F STATESBORO CLOUDY 82 64 53 S14G22 29.89F SYLVANIA CLOUDY N/A N/A N/A SW9G20 29.91S CLAXTON FAIR 82 70 67 SE7G17 29.90S ...CSRA...CENTRAL AND FAR SOUTHEAST GEORGIA... CITY SKY/WX TMP DP RH WIND PRES REMARKS THOMSON PTSUNNY 76 67 73 W6G17 29.92F AUGUSTA-BUSH CLOUDY 75 68 78 S9 29.89R AUGUSTA-DANIEL CLOUDY 74 65 73 S15 29.90R SWAINSBORO FAIR 79 66 65 SW9G18 29.90S VIDALIA SUNNY 82 66 57 S17 29.89F EASTMAN FAIR 83 55 38 SW8G24 29.90R HAZLEHURST FAIR 83 67 60 SW17G26 29.88F ALMA SUNNY 84 66 54 S15G21 29.91S WAYCROSS MOSUNNY 88 69 53 SW13 29.91F HX 92 JESUP FAIR 86 59 39 SW12G21 29.91F BAXLEY FAIR 82 70 65 S16 29.90S BRUNSWICK SUNNY 84 68 58 SE14G20 29.94R SAINT SIMONS MOSUNNY 80 67 64 S10 29.94S $$ SCZ027-028-034-036>038-045-046-048>050-GAZ119-141-271700- ...LAKE AND SUPPLEMENTAL COASTAL OBSERVATIONS... STATION/POSITION TIME TEMP WIND PRES WAVE SWELL AIR SEA DIR/SP/G HT/PER HT/PER/DIR (UTC) (F) (DEG/KT/KT) (MB) (FT/S) (FT/S/D) WINYAH BAY NOT AVBL LAKE MURRAY 1520 73 190/ 4/ 5 1011.5F ACE BASIN NERRS 1445 78 170/ 2 1014.0 FORT PULASKI 1542 76 74 200/ 7/ 12 1014.0R SAPELO ISLAND 1500 80 170/ 13 1014.0 $$ ANZ835-935-AMZ111-154-330-350-352-354-370-450-454-472-271700- ...C-MAN AND BUOY OBSERVATIONS... STATION/POSITION TIME TEMP WIND PRES WAVE SWELL AIR SEA DIR/SP/G HT/PER HT/PER/DIR (UTC) (F) (DEG/KT/KT) (MB) (FT/S) (FT/S/D) BUOY 41004 1550 74 73 190/ 4/ 6 1014.4F 4/ 9 3/130/ 9 BUOY 41008 1450 73 72 190/ 10/ 12 1013.7 3/ 9 3/100/ 9 FOLLY BEACH CMAN 1500 73 200/ 8/ 10 1015.0R CAPERS NEARSHORE 1508 74 72 210/ 10/ 14 1014.3R FRIPP NEARSHORE 1508 72 72 180/ 6/ 10 1013.7F STATION/POSITION TIME TEMP WIND PRES WAVE SWELL AIR SEA DIR/SP/G HT/PER HT/PER/DIR (UTC) (F) (DEG/KT/KT) (MB) (FT/S) (FT/S/D) 5E ST. MARYS GA 1530 73 N/A 3/ 5 2/ 90/11 FRYING PAN BUOY 1550 74 73 250/ 6/ 8 1014.9F 4/ 9 3/130/ 9 BUOY 41025 1550 77 77 220/ 14/ 17 1014.9S 6/ 9 3/130/ 9 CAPE LOOKOUT NC 1500 72 250/ 9/ 13 1014.9R BUOY 41002 1550 74 74 180/ 14/ 17 1018.2R 5/ 8 3/110/ 8 BUOY 41010 1550 77 78 170/ 14/ 17 1016.6R 5/ 9 3/110/ 9 ST AUGUSTINE FL 1600 74 75 140/ 15/ 16 1015.2F $$

USA.gov is the U.S. government's official web portal to all federal, state and local government web resources and services.